"2010-08-02 00:00:00",34861,12.29,347.5,0.821,0.164,20.51,108.2338,20.36,21.33,54,0,110.9,13.2,21.18,309.5
"2010-08-02 00:00:30",34862,12.24,348.9,0.903,0.285,20.53,108.2552,20.41,21.32,53.91,0,110.9,13.21,21.24,310.9
"2010-08-02 00:01:00",34863,12.13,347.8,1.154,0.145,20.36,108.2623,20.43,21.33,53.7,0,110.9,13.21,21.26,309.8
"2010-08-02 00:01:30",34864,12.14,347.5,0.901,0.117,20.29,108.2623,20.43,21.33,53.48,0,110.9,13.21,21.26,309.5
"2010-08-02 00:02:00",34865,12.19,345.3,1.36,0.236,20.1,108.2635,20.44,21.34,53.68,0,110.9,13.21,21.26,307.3
"2010-08-02 00:02:30",34866,11.9,342.6,2.091,0.324,19.87,108.2604,20.43,21.32,53.63,0,110.9,13.22,21.25,304.6
"2010-08-02 00:03:00",34867,11.96,344.1,1.388,0.222,20.03,108.2339,20.36,21.3,53.68,0,110.9,13.22,21.18,306.1
"2010-08-02 00:03:30",34868,12.09,341.5,1.328,0.192,19.96,108.2295,20.35,21.29,53.32,0,110.9,13.22,21.17,303.5
"2010-08-02 00:04:00",34869,12,341.6,1.57,0.194,19.95,108.2255,20.34,21.27,53.15,0,110.9,13.22,21.16,303.6
"2010-08-02 00:04:30",34870,12.1,340.1,1.074,0.229,19.87,108.2004,20.27,21.24,52.74,0,110.9,13.22,21.10,302.1
"2010-08-02 00:05:00",34871,12.09,340.5,0.938,0.162,19.98,108.1957,20.26,21.22,52.67,0,110.8,13.22,21.08,302.5
"2010-08-02 00:05:30",34872,11.79,342.6,1.045,0.137,20.21,108.1948,20.26,21.19,52.67,0,110.9,13.22,21.08,304.6
"2010-08-02 00:06:00",34873,11.96,340.8,1.827,0.497,20.15,108.1954,20.26,21.18,52.84,0,110.9,13.22,21.08,302.8
"2010-08-02 00:06:30",34874,12.08,341.2,0.807,0.229,20.33,108.198,20.27,21.19,52.67,0,110.9,13.22,21.09,303.2
"2010-08-02 00:07:00",34875,12.1,341,1.075,0.215,20.2,108.2081,20.29,21.19,52.51,0,110.9,13.22,21.12,303.0
"2010-08-02 00:07:30",34876,11.8,338.8,1.917,0.314,19.91,108.2107,20.3,21.21,52.59,0,110.9,13.22,21.12,300.8
"2010-08-02 00:08:00",34877,11.97,340.2,1.309,0.191,20.17,108.2062,20.29,21.21,52.22,0,110.9,13.22,21.11,302.2
"2010-08-02 00:08:30",34878,12.11,341.8,1.032,0.127,20.34,108.2242,20.33,21.2,52.16,0,110.9,13.22,21.16,303.8
"2010-08-02 00:09:00",34879,11.9,338.4,2.329,0.261,20.02,108.2337,20.36,21.22,52.3,0,110.8,13.22,21.18,300.4
"2010-08-02 00:09:30",34880,11.7,332.5,2.766,0.581,19.67,108.234,20.36,21.22,53.46,0,110.8,13.22,21.18,294.5
"2010-08-02 00:10:00",34881,11.3,333.6,2.198,0.442,19.95,108.211,20.3,21.22,52.98,0,110.9,13.22,21.12,295.6
"2010-08-02 00:10:30",34882,11.16,331.2,2.437,0.371,19.74,108.2037,20.28,21.19,53.22,0,110.8,13.22,21.11,293.2
"2010-08-02 00:11:00",34883,11.07,329.8,2.547,0.524,19.75,108.2012,20.28,21.19,53.5,0,110.9,13.22,21.10,291.8
"2010-08-02 00:11:30",34884,10.66,326.3,3.546,0.493,19.81,108.1906,20.25,21.16,53.77,0,110.8,13.22,21.07,288.3
"2010-08-02 00:12:00",34885,10.96,324.8,2.818,0.51,19.88,108.1703,20.2,21.14,53.65,0,110.9,13.22,21.02,286.8
"2010-08-02 00:12:30",34886,10.9,319.7,3.352,0.438,19.77,108.1695,20.19,21.14,54.21,0,110.8,13.22,21.02,281.7
"2010-08-02 00:13:00",34887,10.55,322.2,3.996,0.506,19.85,108.1696,20.19,21.11,54.05,0,110.8,13.22,21.02,284.2
"2010-08-02 00:13:30",34888,10.36,317.6,2.443,0.569,19.85,108.1602,20.17,21.11,53.89,0,110.8,13.22,20.99,279.6
"2010-08-02 00:14:00",34889,10.66,316.3,4.858,0.794,19.93,108.1538,20.15,21.07,53.82,0,110.8,13.21,20.98,278.3
"2010-08-02 00:14:30",34890,10.19,314.4,3.12,0.934,20.01,108.1529,20.15,21.07,53.87,0,110.8,13.21,20.97,276.4
"2010-08-02 00:15:00",34891,11.29,315.4,3.966,1.27,19.97,108.1577,20.16,21.06,53.9,0,110.8,13.21,20.99,277.4
"2010-08-02 00:15:30",34892,9.64,316.7,4.62,0.957,19.96,108.158,20.17,21.05,53.66,0,110.8,13.21,20.99,278.7
"2010-08-02 00:16:00",34893,9.88,316.6,3.851,0.765,19.93,108.1578,20.16,21.07,53.93,0,110.8,13.21,20.99,278.6
"2010-08-02 00:16:30",34894,10.67,316.8,3.432,0.719,19.95,108.1589,20.17,21.06,53.87,0,110.8,13.21,20.99,278.8
"2010-08-02 00:17:00",34895,10.42,312.1,4.197,0.621,20.03,108.1597,20.17,21.04,53.78,0,110.8,13.21,20.99,274.1
"2010-08-02 00:17:30",34896,10.19,309.3,2.906,0.745,19.97,108.1586,20.17,21.04,54.49,0,110.9,13.22,20.99,271.3
"2010-08-02 00:18:00",34897,10.06,320.4,3.99,0.497,20.17,108.1637,20.18,21.04,53.41,0,110.9,13.22,21.00,282.4
"2010-08-02 00:18:30",34898,9.29,309.1,4.492,0.886,19.98,108.1698,20.2,21.06,54.53,0,110.9,13.22,21.02,271.1
"2010-08-02 00:19:00",34899,9.71,320.1,3.936,0.89,20.15,108.1702,20.2,21.05,53.1,0,110.8,13.22,21.02,282.1
"2010-08-02 00:19:30",34900,8.16,315.4,5.657,0.542,20.17,108.1775,20.21,21.07,52.57,0,110.8,13.22,21.04,277.4
"2010-08-02 00:20:00",34901,9.11,310.8,3.723,0.993,20.07,108.1966,20.26,21.08,53.5,0,110.9,13.22,21.09,272.8
"2010-08-02 00:20:30",34902,7.901,315.7,3.196,0.529,20.07,108.2039,20.28,21.12,52.91,0,110.8,13.22,21.11,277.7
"2010-08-02 00:21:00",34903,9.51,315.9,3.787,0.478,20.05,108.2039,20.28,21.11,52.97,0,110.9,13.22,21.11,277.9
"2010-08-02 00:21:30",34904,8.83,317.6,5.458,0.568,20,108.2039,20.28,21.12,53.1,0,110.9,13.22,21.11,279.6
"2010-08-02 00:22:00",34905,8.57,318.2,3.34,0.485,19.97,108.2039,20.28,21.15,53.04,0,110.9,13.22,21.11,280.2
"2010-08-02 00:22:30",34906,8.51,319.6,3.751,0.495,20,108.2039,20.28,21.15,52.96,0,110.9,13.22,21.11,281.6
"2010-08-02 00:23:00",34907,9.2,320.3,3.862,0.373,20.07,108.2039,20.28,21.16,52.86,0,110.8,13.22,21.11,282.3
"2010-08-02 00:23:30",34908,8.18,322.2,3.725,0.404,20.09,108.2039,20.28,21.15,52.79,0,110.8,13.22,21.11,284.2
"2010-08-02 00:24:00",34909,8.3,316.4,5.144,0.653,20.03,108.2039,20.28,21.16,53.14,0,110.8,13.22,21.11,278.4
"2010-08-02 00:24:30",34910,8.29,322.7,3.942,0.596,20.11,108.2059,20.29,21.16,52.59,0,110.8,13.22,21.11,284.7
"2010-08-02 00:25:00",34911,8.21,319.8,3.101,0.556,20.04,108.2098,20.3,21.18,53.03,0,110.8,13.22,21.12,281.8
"2010-08-02 00:25:30",34912,8.81,325.7,3.956,0.38,20.26,108.214,20.31,21.19,52.38,0,110.8,13.22,21.13,287.7
"2010-08-02 00:26:00",34913,8.34,321.6,2.025,0.678,20.05,108.2315,20.35,21.19,52.57,0,110.8,13.22,21.18,283.6
"2010-08-02 00:26:30",34914,7.9,326.2,3.93,0.452,20.06,108.2377,20.37,21.2,52.36,0,110.8,13.22,21.19,288.2
"2010-08-02 00:27:00",34915,8.91,326,2.346,0.426,20.13,108.2377,20.37,21.23,51.94,0,110.8,13.23,21.19,288.0
"2010-08-02 00:27:30",34916,8.58,322.2,4.059,0.28,20.06,108.2377,20.37,21.23,52.4,0,110.8,13.22,21.19,284.2
"2010-08-02 00:28:00",34917,8.37,318.5,1.956,0.333,20.05,108.2377,20.37,21.24,52.98,0,110.8,13.23,21.19,280.5
"2010-08-02 00:28:30",34918,8.49,323.9,3.295,0.263,20.18,108.2377,20.37,21.24,52.2,0,110.8,13.23,21.19,285.9
"2010-08-02 00:29:00",34919,8.74,326.2,3.178,0.403,20.17,108.2377,20.37,21.24,51.81,0,110.8,13.23,21.19,288.2
"2010-08-02 00:29:30",34920,8.01,321.4,3.103,0.463,20.13,108.238,20.37,21.25,52.28,0,110.8,13.22,21.19,283.4
"2010-08-02 00:30:00",34921,7.981,321.9,2.373,0.586,20.14,108.2419,20.38,21.25,51.94,0,110.8,13.22,21.20,283.9
"2010-08-02 00:30:30",34922,8.31,326.8,2.468,0.412,20.2,108.254,20.41,21.27,51.7,0,110.8,13.22,21.23,288.8
"2010-08-02 00:31:00",34923,7.767,325.2,2.926,0.575,20.18,108.2675,20.45,21.3,51.91,0,110.8,13.22,21.27,287.2
"2010-08-02 00:31:30",34924,7.974,322.5,1.751,0.35,20.15,108.2714,20.46,21.29,52.01,0,110.8,13.22,21.28,284.5
"2010-08-02 00:32:00",34925,8.3,324.7,1.494,0.309,20.17,108.2714,20.46,21.3,51.93,0,110.8,13.22,21.28,286.7
"2010-08-02 00:32:30",34926,8.52,321.5,3.497,0.287,20.21,108.2714,20.46,21.33,51.96,0,110.8,13.22,21.28,283.5
"2010-08-02 00:33:00",34927,8.63,328.4,2.043,0.48,20.25,108.2714,20.46,21.32,51.5,0,110.8,13.22,21.28,290.4
"2010-08-02 00:33:30",34928,8.09,321.2,2.968,0.213,20.23,108.274,20.46,21.34,51.62,0,110.8,13.22,21.29,283.2
"2010-08-02 00:34:00",34929,7.995,324.6,3.615,0.331,20.25,108.2793,20.48,21.34,51.32,0,110.8,13.22,21.30,286.6
"2010-08-02 00:34:30",34930,8.37,326.9,2.087,0.355,20.24,108.2996,20.53,21.35,50.97,0,110.8,13.22,21.35,288.9
"2010-08-02 00:35:00",34931,8.15,331.1,2.689,0.496,20.25,108.3052,20.54,21.38,50.9,0,110.8,13.22,21.37,293.1
"2010-08-02 00:35:30",34932,8.21,326.6,4.245,0.438,20.22,108.3052,20.54,21.41,51.42,0,110.8,13.22,21.37,288.6
"2010-08-02 00:36:00",34933,8.02,326.3,4.639,0.453,20.23,108.3052,20.54,21.4,51.38,0,110.8,13.23,21.37,288.3
"2010-08-02 00:36:30",34934,7.56,330.8,4.763,0.328,20.29,108.3052,20.54,21.41,50.92,0,110.8,13.23,21.37,292.8
"2010-08-02 00:37:00",34935,7.712,330.9,2.651,0.363,20.35,108.3077,20.55,21.4,50.48,0,110.8,13.23,21.37,292.9
"2010-08-02 00:37:30",34936,7.649,328.3,2.952,0.341,20.31,108.3207,20.58,21.43,50.56,0,110.8,13.23,21.41,290.3
"2010-08-02 00:38:00",34937,7.458,328.9,2.445,0.315,20.29,108.3384,20.63,21.45,50.36,0,110.8,13.23,21.45,290.9
"2010-08-02 00:38:30",34938,7.31,327.4,2.435,0.307,20.22,108.339,20.63,21.46,50.78,0,110.8,13.23,21.45,289.4
"2010-08-02 00:39:00",34939,7.609,328.9,2.745,0.417,20.27,108.339,20.63,21.47,50.72,0,110.8,13.23,21.45,290.9
"2010-08-02 00:39:30",34940,7.151,326.6,2.847,0.74,20.25,108.339,20.63,21.48,50.5,0,110.8,13.23,21.45,288.6
"2010-08-02 00:40:00",34941,7.26,327.4,3.982,0.366,20.29,108.339,20.63,21.49,50.49,0,110.8,13.23,21.45,289.4
"2010-08-02 00:40:30",34942,7.3,330.3,3.778,0.31,20.28,108.339,20.63,21.51,50.4,0,110.8,13.23,21.45,292.3
"2010-08-02 00:41:00",34943,7.354,332.7,2.012,0.553,20.3,108.3398,20.63,21.52,50.07,0,110.8,13.23,21.46,294.7
"2010-08-02 00:41:30",34944,6.508,331.7,2.467,0.256,20.27,108.3485,20.65,21.53,50.34,0,110.8,13.23,21.48,293.7
"2010-08-02 00:42:00",34945,6.535,332,6.734,0.521,20.28,108.3544,20.67,21.53,50.4,0,110.8,13.23,21.49,294.0
"2010-08-02 00:42:30",34946,6.935,330.6,2.964,0.344,20.23,108.3516,20.66,21.53,50.66,0,110.8,13.23,21.49,292.6
"2010-08-02 00:43:00",34947,7.057,326.4,1.854,0.529,20.17,108.3395,20.63,21.53,51.09,0,110.8,13.23,21.45,288.4
"2010-08-02 00:43:30",34948,6.78,318.9,3.972,0.416,20.12,108.339,20.63,21.53,51.13,0,110.8,13.23,21.45,280.9
"2010-08-02 00:44:00",34949,6.978,321.9,2.842,0.41,20.27,108.339,20.63,21.52,50.72,0,110.8,13.23,21.45,283.9
"2010-08-02 00:44:30",34950,6.479,323.7,3.327,0.288,20.27,108.339,20.63,21.52,50.58,0,110.8,13.23,21.45,285.7
"2010-08-02 00:45:00",34951,5.783,321.5,2.99,0.383,20.24,108.339,20.63,21.55,50.67,0,110.8,13.23,21.45,283.5
"2010-08-02 00:45:30",34952,6.771,316.9,4.315,0.288,20.09,108.339,20.63,21.53,51.28,0,110.8,13.23,21.45,278.9
"2010-08-02 00:46:00",34953,6.444,323.5,4.042,0.356,20.2,108.339,20.63,21.52,51.23,0,110.8,13.23,21.45,285.5
"2010-08-02 00:46:30",34954,5.866,326.8,3.005,0.308,20.19,108.335,20.62,21.5,51.37,0,110.8,13.22,21.44,288.8
"2010-08-02 00:47:00",34955,6.117,327.9,3.056,0.321,20.26,108.3238,20.59,21.51,51.15,0,110.8,13.22,21.41,289.9
"2010-08-02 00:47:30",34956,6.675,330.8,4.161,0.438,20.39,108.3342,20.62,21.49,50.64,0,110.8,13.22,21.44,292.8
"2010-08-02 00:48:00",34957,6.482,333.5,4.285,0.464,20.31,108.339,20.63,21.52,50.73,0,110.8,13.22,21.45,295.5
"2010-08-02 00:48:30",34958,6.381,328.6,3.068,0.428,20.27,108.339,20.63,21.51,51.02,0,110.8,13.22,21.45,290.6
"2010-08-02 00:49:00",34959,6.227,329.9,6.67,0.346,20.25,108.339,20.63,21.53,50.98,0,110.8,13.22,21.45,291.9
"2010-08-02 00:49:30",34960,5.818,331.9,1.687,0.219,20.34,108.339,20.63,21.52,50.8,0,110.8,13.22,21.45,293.9
"2010-08-02 00:50:00",34961,6.03,333.5,5.064,0.225,20.26,108.339,20.63,21.52,51.01,0,110.8,13.22,21.45,295.5
"2010-08-02 00:50:30",34962,6.136,327.8,1.887,0.204,20.14,108.3387,20.63,21.53,51.44,0,110.8,13.22,21.45,289.8
"2010-08-02 00:51:00",34963,6.21,336.2,3.151,0.412,20.28,108.3381,20.63,21.5,51.22,0,110.8,13.22,21.45,298.2
"2010-08-02 00:51:30",34964,5.637,331.7,5.898,0.232,20.15,108.3353,20.62,21.5,51.42,0,110.8,13.22,21.44,293.7
"2010-08-02 00:52:00",34965,5.939,335.2,5.729,0.403,20.14,108.3103,20.56,21.5,51.75,0,110.8,13.23,21.38,297.2
"2010-08-02 00:52:30",34966,6.136,332.5,2.879,0.492,20.22,108.3052,20.54,21.47,51.6,0,110.8,13.23,21.37,294.5
"2010-08-02 00:53:00",34967,6.09,333.1,3.34,0.407,20.27,108.3052,20.54,21.46,51.72,0,110.8,13.23,21.37,295.1
"2010-08-02 00:53:30",34968,5.767,336.2,4.207,0.316,20.22,108.3052,20.54,21.45,51.91,0,110.8,13.23,21.37,298.2
"2010-08-02 00:54:00",34969,5.916,333.9,3.124,0.312,20.1,108.3049,20.54,21.45,52.28,0,110.8,13.23,21.37,295.9
"2010-08-02 00:54:30",34970,6.223,333.9,1.628,0.456,20.04,108.2855,20.49,21.42,52.65,0,110.8,13.23,21.32,295.9
"2010-08-02 00:55:00",34971,6.432,331.1,2.822,0.281,20.03,108.2714,20.46,21.41,52.86,0,110.8,13.23,21.28,293.1
"2010-08-02 00:55:30",34972,6.52,330.1,1.023,0.141,19.97,108.2602,20.43,21.38,53.33,0,110.8,13.23,21.25,292.1
"2010-08-02 00:56:00",34973,6.699,329.2,1.084,0.074,19.92,108.2343,20.36,21.35,53.8,0,110.8,13.23,21.18,291.2
"2010-08-02 00:56:30",34974,6.955,333,1.733,0.197,19.82,108.2059,20.29,21.3,54.17,0,110.8,13.23,21.11,295.0
"2010-08-02 00:57:00",34975,7.072,333.9,1.368,0.177,19.86,108.1842,20.23,21.26,54.3,0,110.8,13.23,21.05,295.9
"2010-08-02 00:57:30",34976,7.046,334.7,0.609,0.125,19.84,108.169,20.19,21.22,54.73,0,110.8,13.23,21.02,296.7
"2010-08-02 00:58:00",34977,6.71,333.6,0.927,0.243,19.86,108.1457,20.13,21.18,54.94,0,110.8,13.23,20.96,295.6
"2010-08-02 00:58:30",34978,6.493,334,1.603,0.131,19.8,108.135,20.11,21.14,55.03,0,110.8,13.23,20.93,296.0
"2010-08-02 00:59:00",34979,6.494,334.3,1.133,0.135,19.77,108.1049,20.03,21.08,55.34,0,110.8,13.23,20.85,296.3
"2010-08-02 00:59:30",34980,6.305,332,0.564,0.079,19.68,108.1001,20.02,21.06,55.56,0,110.8,13.23,20.84,294.0
"2010-08-02 01:00:00",34981,6.301,334.5,0.579,0.142,19.83,108.0832,19.97,21.01,55.62,0,110.8,13.23,20.79,296.5
"2010-08-02 01:00:30",34982,6.069,333.9,0.662,0.145,19.94,108.0782,19.96,20.98,55.31,0,110.8,13.23,20.78,295.9
"2010-08-02 01:01:00",34983,5.428,333.4,1.217,0.128,20.22,108.097,20.01,20.98,54.76,0,110.8,13.23,20.83,295.4
"2010-08-02 01:01:30",34984,5.309,334.4,0.927,0.111,20.19,108.1153,20.06,21,54.41,0,110.8,13.23,20.88,296.4
"2010-08-02 01:02:00",34985,5.093,336.3,2.038,0.191,20.27,108.1392,20.12,21.02,54.12,0,110.8,13.23,20.94,298.3
"2010-08-02 01:02:30",34986,4.597,338.3,1.012,0.142,20.3,108.1682,20.19,21.06,53.76,0,110.8,13.23,21.01,300.3
"2010-08-02 01:03:00",34987,4.748,339.7,1.743,0.209,20.26,108.189,20.24,21.11,53.62,0,110.8,13.23,21.07,301.7
"2010-08-02 01:03:30",34988,4.815,339.3,0.977,0.109,20.36,108.2054,20.29,21.12,53.44,0,110.8,13.23,21.11,301.3
"2010-08-02 01:04:00",34989,4.606,342.1,1.849,0.085,20.26,108.2139,20.31,21.15,53.24,0,110.8,13.23,21.13,304.1
"2010-08-02 01:04:30",34990,4.493,345.6,1.413,0.092,20.19,108.2378,20.37,21.19,53.04,0,110.8,13.23,21.19,307.6
"2010-08-02 01:05:00",34991,4.525,346.3,1.633,0.124,20.3,108.2389,20.37,21.22,52.92,0,110.8,13.23,21.20,308.3
"2010-08-02 01:05:30",34992,4.455,345.9,1.005,0.245,20.33,108.246,20.39,21.23,52.9,0,110.8,13.23,21.21,307.9
"2010-08-02 01:06:00",34993,4.755,347.9,1.106,0.17,20.37,108.2682,20.45,21.26,52.62,0,110.8,13.23,21.27,309.9
"2010-08-02 01:06:30",34994,4.609,348.7,1.461,0.164,20.36,108.2775,20.47,21.27,52.59,0,110.8,13.23,21.30,310.7
"2010-08-02 01:07:00",34995,4.594,348.2,2.247,0.225,20.3,108.2769,20.47,21.3,52.65,0,110.8,13.23,21.29,310.2
"2010-08-02 01:07:30",34996,4.21,347.6,2.279,0.248,20.25,108.2784,20.47,21.3,52.79,0,110.8,13.23,21.30,309.6
"2010-08-02 01:08:00",34997,4.383,343.6,2.093,0.22,20.07,108.2784,20.47,21.3,52.97,0,110.8,13.23,21.30,305.6
"2010-08-02 01:08:30",34998,4.433,344.8,1.461,0.119,20.13,108.2774,20.47,21.31,53.01,0,110.8,13.23,21.29,306.8
"2010-08-02 01:09:00",34999,4.431,345,2.59,0.173,20.18,108.2567,20.42,21.3,52.93,0,110.8,13.23,21.24,307.0
"2010-08-02 01:09:30",35000,4.581,344.7,1.8,0.212,20.25,108.2584,20.42,21.31,52.79,0,110.8,13.23,21.25,306.7
"2010-08-02 01:10:00",35001,4.542,344,1.609,0.1,20.15,108.2681,20.45,21.31,52.77,0,110.8,13.23,21.27,306.0
"2010-08-02 01:10:30",35002,4.802,343.2,0.874,0.09,20.41,108.2761,20.47,21.32,52.55,0,110.8,13.23,21.29,305.2
"2010-08-02 01:11:00",35003,4.729,342.3,1.087,0.123,20.39,108.2778,20.47,21.33,52.49,0,110.8,13.23,21.30,304.3
"2010-08-02 01:11:30",35004,4.799,340,1.633,0.213,20.19,108.2775,20.47,21.34,52.58,0,110.8,13.23,21.30,302.0
"2010-08-02 01:12:00",35005,5.295,344.4,4.296,0.206,20.6,108.2817,20.48,21.34,51.52,0,110.8,13.23,21.31,306.4
"2010-08-02 01:12:30",35006,5.158,344.2,1.792,0.2,20.52,108.3128,20.56,21.39,51.58,0,110.8,13.23,21.39,306.2
"2010-08-02 01:13:00",35007,4.913,343.7,1.492,0.116,20.61,108.313,20.56,21.42,51.48,0,110.8,13.23,21.39,305.7
"2010-08-02 01:13:30",35008,5.057,339.1,2.749,0.087,20.71,108.3444,20.64,21.47,51.13,0,110.8,13.24,21.47,301.1
"2010-08-02 01:14:00",35009,4.917,335.4,0.762,0.084,20.54,108.346,20.65,21.49,51.49,0,110.8,13.23,21.47,297.4
"2010-08-02 01:14:30",35010,4.666,330.9,2.1,0.103,20.28,108.3463,20.65,21.52,51.72,0,110.8,13.23,21.47,292.9
"2010-08-02 01:15:00",35011,4.606,327.2,1.02,0.09,20.35,108.3478,20.65,21.5,51.87,0,110.8,13.23,21.48,289.2
"2010-08-02 01:15:30",35012,4.437,327.4,1.233,0.107,20.32,108.3417,20.64,21.49,51.91,0,110.8,13.24,21.46,289.4
"2010-08-02 01:16:00",35013,4.335,325,2.094,0.092,20.16,108.3308,20.61,21.49,52.27,0,110.8,13.24,21.43,287.0
"2010-08-02 01:16:30",35014,4.611,320.7,4.123,0.203,20.03,108.3099,20.55,21.46,52.49,0,110.8,13.24,21.38,282.7
"2010-08-02 01:17:00",35015,4.862,314.3,2.367,0.136,20.02,108.2808,20.48,21.44,52.6,0,110.8,13.24,21.30,276.3
"2010-08-02 01:17:30",35016,4.85,312.5,1.757,0.106,20.08,108.2646,20.44,21.4,52.66,0,110.8,13.24,21.26,274.5
"2010-08-02 01:18:00",35017,4.671,312.7,1.541,0.133,20.06,108.245,20.39,21.35,52.74,0,110.8,13.24,21.21,274.7
"2010-08-02 01:18:30",35018,5.089,311.6,0.931,0.181,20.03,108.2438,20.39,21.33,52.83,0,110.8,13.24,21.21,273.6
"2010-08-02 01:19:00",35019,5.26,310,0.469,0.047,19.89,108.2199,20.32,21.32,53.02,0,110.8,13.24,21.15,272.0
"2010-08-02 01:19:30",35020,5.242,309.4,0.458,0.051,19.94,108.2118,20.3,21.27,53.19,0,110.8,13.23,21.13,271.4
"2010-08-02 01:20:00",35021,5.511,308.8,0.474,0.066,20.06,108.2097,20.3,21.28,52.95,0,110.8,13.24,21.12,270.8
"2010-08-02 01:20:30",35022,5.624,309.3,0.939,0.12,20.1,108.2112,20.3,21.26,53.09,0,110.8,13.23,21.12,271.3
"2010-08-02 01:21:00",35023,5.645,310.5,0.717,0.081,20.13,108.2106,20.3,21.24,53.28,0,110.8,13.23,21.12,272.5
"2010-08-02 01:21:30",35024,5.585,312.8,1.037,0.091,20.01,108.2122,20.3,21.23,53.42,0,110.8,13.23,21.13,274.8
"2010-08-02 01:22:00",35025,5.372,314.5,0.738,0.172,20.06,108.2075,20.29,21.22,52.76,0,110.8,13.23,21.11,276.5
"2010-08-02 01:22:30",35026,5.083,313.5,0.634,0.075,20.09,108.2079,20.29,21.22,52.83,0,110.8,13.23,21.12,275.5
"2010-08-02 01:23:00",35027,4.993,311.6,0.918,0.064,20.27,108.2107,20.3,21.21,52.59,0,110.8,13.23,21.12,273.6
"2010-08-02 01:23:30",35028,4.862,311.6,0.726,0.078,20.26,108.2112,20.3,21.2,52.84,0,110.8,13.23,21.12,273.6
"2010-08-02 01:24:00",35029,4.824,310.8,0.787,0.087,20.21,108.2112,20.3,21.22,52.58,0,110.8,13.23,21.12,272.8
"2010-08-02 01:24:30",35030,4.79,312.2,0.939,0.045,20.33,108.2154,20.31,21.22,52.1,0,110.8,13.23,21.14,274.2
"2010-08-02 01:25:00",35031,4.602,311.5,1.127,0.116,20.23,108.2295,20.35,21.22,51.91,0,110.8,13.23,21.17,273.5
"2010-08-02 01:25:30",35032,4.451,309.4,1.133,0.061,20.34,108.2477,20.4,21.26,51.71,0,110.8,13.23,21.22,271.4
"2010-08-02 01:26:00",35033,4.32,311.2,1.341,0.087,20.32,108.2492,20.4,21.27,51.3,0,110.8,13.23,21.22,273.2
"2010-08-02 01:26:30",35034,4.371,311,1.302,0.134,20.29,108.2606,20.43,21.27,51.73,0,110.8,13.24,21.25,273.0
"2010-08-02 01:27:00",35035,4.214,311.9,2.211,0.259,20.29,108.278,20.47,21.29,51.67,0,110.8,13.24,21.30,273.9
"2010-08-02 01:27:30",35036,3.826,309.3,1.128,0.067,20.16,108.2873,20.5,21.31,50.94,0,110.8,13.24,21.32,271.3
"2010-08-02 01:28:00",35037,3.674,309.7,1.045,0.082,20.28,108.2842,20.49,21.33,50.96,0,110.8,13.24,21.31,271.7
"2010-08-02 01:28:30",35038,3.587,309.7,1.158,0.05,20.33,108.2842,20.49,21.35,51.06,0,110.8,13.24,21.31,271.7
"2010-08-02 01:29:00",35039,3.375,307.1,1.869,0.105,20.33,108.2895,20.5,21.37,50.73,0,110.8,13.24,21.33,269.1
"2010-08-02 01:29:30",35040,3.025,308.5,2.009,0.105,20.28,108.3089,20.55,21.38,50.47,0,110.8,13.24,21.38,270.5
"2010-08-02 01:30:00",35041,2.835,312.2,1.602,0.049,20.23,108.3165,20.57,21.39,50.48,0,110.8,13.24,21.40,274.2
"2010-08-02 01:30:30",35042,2.581,311.9,1.311,0.166,20.29,108.3186,20.58,21.41,50.46,0,110.8,13.24,21.40,273.9
"2010-08-02 01:31:00",35043,2.262,315.8,1.494,0.078,20.29,108.3204,20.58,21.41,50.55,0,110.8,13.24,21.41,277.8
"2010-08-02 01:31:30",35044,2.287,316.4,2.283,0.164,20.2,108.321,20.58,21.43,50.58,0,110.8,13.24,21.41,278.4
"2010-08-02 01:32:00",35045,1.989,315.7,0.936,0.059,20.29,108.3183,20.58,21.44,50.48,0,110.8,13.24,21.40,277.7
"2010-08-02 01:32:30",35046,1.731,315.9,1.275,0.095,20.23,108.3223,20.59,21.44,50.4,0,110.8,13.24,21.41,277.9
"2010-08-02 01:33:00",35047,1.528,314,1.541,0.063,20.3,108.3192,20.58,21.44,50.2,0,110.8,13.24,21.40,276.0
"2010-08-02 01:33:30",35048,1.453,316.9,1.632,0.063,20.26,108.3171,20.57,21.45,50.08,0,110.8,13.24,21.40,278.9
"2010-08-02 01:34:00",35049,1.305,319.5,1.595,0.086,20.28,108.3204,20.58,21.45,49.98,0,110.8,13.24,21.41,281.5
"2010-08-02 01:34:30",35050,1.203,316.3,1.288,0.128,20.28,108.3229,20.59,21.45,49.95,0,110.8,13.24,21.41,278.3
"2010-08-02 01:35:00",35051,1.506,311.5,2.326,0.088,20.3,108.3223,20.59,21.45,49.96,0,110.8,13.24,21.41,273.5
"2010-08-02 01:35:30",35052,1.521,311.4,0.872,0.06,20.27,108.3214,20.58,21.46,50.09,0,110.8,13.24,21.41,273.4
"2010-08-02 01:36:00",35053,1.322,311.7,1.081,0.066,20.28,108.3057,20.54,21.45,50.16,0,110.8,13.24,21.37,273.7
"2010-08-02 01:36:30",35054,1.119,313.8,0.742,0.06,20.18,108.292,20.51,21.43,50.28,0,110.8,13.24,21.33,275.8
"2010-08-02 01:37:00",35055,0.865,314.4,1.262,0.066,19.88,108.29,20.5,21.44,50.43,0,110.8,13.24,21.33,276.4
"2010-08-02 01:37:30",35056,0.663,321.8,4.203,0.069,20.05,108.2686,20.45,21.4,50.64,0,110.8,13.23,21.27,283.8
"2010-08-02 01:38:00",35057,0.425,331,2.654,0.109,20.11,108.2569,20.42,21.37,50.79,0,110.8,13.23,21.24,293.0
"2010-08-02 01:38:30",35058,0.47,329,1.164,0.036,20.07,108.2409,20.38,21.34,50.93,0,110.8,13.23,21.20,291.0
"2010-08-02 01:39:00",35059,0.518,328.8,1.216,0.026,20.05,108.2224,20.33,21.3,51.13,0,110.8,13.23,21.15,290.8
"2010-08-02 01:39:30",35060,0.573,321.9,2.366,0.041,20.17,108.2204,20.33,21.28,51.17,0,110.8,13.23,21.15,283.9
"2010-08-02 01:40:00",35061,0.699,315.6,1.358,0.035,20.22,108.2191,20.32,21.25,51.26,0,110.8,13.23,21.14,277.6
"2010-08-02 01:40:30",35062,0.846,311.1,2.054,0.059,20.18,108.2034,20.28,21.24,51.26,0,110.8,13.23,21.10,273.1
"2010-08-02 01:41:00",35063,1.025,311.8,1.307,0.069,20.01,108.2032,20.28,21.22,51.24,0,110.8,13.23,21.10,273.8
"2010-08-02 01:41:30",35064,1.21,311.5,1.158,0.092,20.22,108.2062,20.29,21.21,51.26,0,110.8,13.23,21.11,273.5
"2010-08-02 01:42:00",35065,1.41,310.6,0.81,0.061,20.48,108.2182,20.32,21.2,51.21,0,110.8,13.23,21.14,272.6
"2010-08-02 01:42:30",35066,1.532,307.3,1.275,0.042,20.55,108.2246,20.34,21.22,51.14,0,110.8,13.23,21.16,269.3
"2010-08-02 01:43:00",35067,1.592,309.7,0.649,0.038,20.69,108.2255,20.34,21.22,51.01,0,110.8,13.24,21.16,271.7
"2010-08-02 01:43:30",35068,1.572,309.3,1.934,0.034,20.63,108.2336,20.36,21.24,50.94,0,110.8,13.24,21.18,271.3
"2010-08-02 01:44:00",35069,1.576,310.6,1.206,0.031,20.58,108.2559,20.42,21.23,50.89,0,110.8,13.24,21.24,272.6
"2010-08-02 01:44:30",35070,1.686,312.2,0.524,0.067,20.41,108.2602,20.43,21.25,50.86,0,110.8,13.24,21.25,274.2
"2010-08-02 01:45:00",35071,1.703,311.8,1.407,0.05,20.42,108.2649,20.44,21.27,50.85,0,110.8,13.24,21.26,273.8
"2010-08-02 01:45:30",35072,1.637,313.5,1.415,0.053,20.38,108.2874,20.5,21.3,50.72,0,110.8,13.24,21.32,275.5
"2010-08-02 01:46:00",35073,1.571,313.6,0.962,0.03,20.39,108.2958,20.52,21.31,50.59,0,110.8,13.24,21.34,275.6
"2010-08-02 01:46:30",35074,1.553,311.9,1.972,0.022,20.46,108.2986,20.53,21.32,50.57,0,110.8,13.25,21.35,273.9
"2010-08-02 01:47:00",35075,1.812,305.6,2.544,0.141,20.41,108.2992,20.53,21.32,50.61,0,110.8,13.24,21.35,267.6
"2010-08-02 01:47:30",35076,1.992,301,1.525,0.048,20.36,108.2943,20.51,21.33,50.67,0,110.8,13.24,21.34,263.0
"2010-08-02 01:48:00",35077,1.808,299,1.389,0.112,20.21,108.276,20.47,21.33,50.76,0,110.8,13.25,21.29,261.0
"2010-08-02 01:48:30",35078,1.571,302.1,3.514,0.092,20.13,108.2654,20.44,21.31,50.8,0,110.8,13.25,21.26,264.1